Hourly Data Report for July 05, 2022

MIRAMICHI RCS
NEW BRUNSWICK
Current Station Operator: ECCC - MSC

47°00'34.000" N
65°27'54.000" W
33.00 m
8100989
71744
ACQ

Download Data

Hourly Data (July 2022)
Hourly Data Report for July 5, 2022
TIME
LST
Temp Definition
°C
Dew Point Definition
°C
Rel Hum Definition
%
Precip. Amount Definition
mm

Wind Dir Definition
10's deg

Wind Spd Definition
km/h
Visibility Definition
km
Stn Press Definition
kPa
Hmdx Definition


Wind Chill Definition


Weather Definition


00:00 14.4 7.3 62 0.0 25 11   100.89     LegendNANA
01:00 12.5 7.9 73 0.0 26 8   100.87     LegendNANA
02:00 12.4 8.2 76 0.0 26 9   100.88     LegendNANA
03:00 11.8 8.3 79 0.0 25 9   100.91     LegendNANA
04:00 10.5 8.2 86 0.0 26 9   100.94     LegendNANA
05:00 10.9 8.7 87 0.0 25 8   101.00     LegendNANA
06:00 12.9 10.2 83 0.0 26 7   101.02     LegendNANA
07:00 15.1 10.6 74 0.0 27 9   101.01     LegendNANA
08:00 17.9 11.1 65 0.0 26 10   101.02     LegendNANA
09:00 20.3 8.0 45 0.0 28 13   101.01     LegendNANA
10:00 21.6 8.4 43 0.0 29 15   100.96     LegendNANA
11:00 22.5 8.4 41 0.0 26 10   100.93     LegendNANA
12:00 23.7 7.6 36 0.0 27 17   100.87     LegendNANA
13:00 23.6 7.7 36 0.0 25 16   100.81     LegendNANA
14:00 24.4 8.6 37 0.0 27 19   100.77 25   LegendNANA
15:00 25.0 9.1 36 0.0 25 21   100.72 26   LegendNANA
16:00 25.2 9.2 36 0.0 25 16   100.67 26   LegendNANA
17:00 25.5 9.6 37 0.0 25 17   100.64 27   LegendNANA
18:00 23.4 11.5 47 0.0 23 15   100.64 25   LegendNANA
19:00 22.2 12.2 53 0.0 22 18   100.67 25   LegendNANA
20:00 20.8 12.8 60 0.0 23 13   100.67     LegendNANA
21:00 20.2 12.8 63 0.0 24 13   100.70     LegendNANA
22:00 19.9 13.3 66 0.0 23 13   100.69     LegendNANA
23:00 19.0 13.5 70 0.0 23 12   100.66     LegendNANA

Notes on Data Quality.

Legend

  • E = Estimated
  • M = Missing
  • NA = Not Available*
  • [empty] = Indicates an unobserved value
Date modified: